142  
ASUS41 KRLX 202310  
RWRRLX  
REGIONAL WEATHER ROUNDUP  
NATIONAL WEATHER SERVICE CHARLESTON WV  
600 PM EST WED FEB 20 2019  
 
NOTE: "FAIR" INDICATES FEW OR NO CLOUDS BELOW 12,000 FEET WITH NO  
SIGNIFICANT WEATHER AND/OR S TO VISIBILITY
.  
 
WVZ003-210000-  
NORTHERN PANHANDLE OF WEST VIRGINIA  
 
CITY SKY/WX TMP DP RH WIND PRES REMARKS
 
WHEELING LGT RAIN 37 35 92 E10 29.85F FOG  

 
 
WVZ009-210000-  
NORTHWEST WEST VIRGINIA  
 
CITY SKY/WX TMP DP RH WIND PRES REMARKS
 
PARKERSBURG CLOUDY 51 46 83 SE9 29.84F  

 
 
WVZ006-210000-  
WESTERN WEST VIRGINIA  
 
CITY SKY/WX TMP DP RH WIND PRES REMARKS
 
HUNTINGTON LGT RAIN 56 53 90 S9G17 29.82F FOG  

 
 
WVZ015-210000-  
WEST CENTRAL WEST VIRGINIA  
 
CITY SKY/WX TMP DP RH WIND PRES REMARKS
 
CHARLESTON CLOUDY 54 50 86 S12 29.86F  

 
 
WVZ022-031-210000-  
NORTH CENTRAL WEST VIRGINIA  
 
CITY SKY/WX TMP DP RH WIND PRES REMARKS
 
MORGANTOWN LGT RAIN 46 42 86 SE14 29.90F FOG  
CLARKSBURG CLOUDY 53 47 79 S5 29.89F  
BUCKHANNON CLOUDY 54 50 87 S9G16 29.90F  

 
 
WVZ025-035-042-045-210000-  
SOUTHERN WEST VIRGINIA  
 
CITY SKY/WX TMP DP RH WIND PRES REMARKS
 
BECKLEY LGT RAIN 37 36 96 SE17G28 29.99R  
LOGAN CLOUDY 52 52 100 S16G30 29.88F  
PINEVILLE DRIZZLE 46 45 95 MISG 30.01S  
BLUEFIELD CLOUDY 39 37 92 S14 30.01F  
LEWISBURG MIX PCPN 33 32 98 N6 30.07F  

 
 
WVZ047-210000-  
NORTHERN MOUNTAINS OF WEST VIRGINIA  
 
CITY SKY/WX TMP DP RH WIND PRES REMARKS
 
ELKINS LGT RAIN 44 39 82 S10G18 29.98F  

 
 
WVZ052-210000-  
EASTERN PANHANDLE OF WEST VIRGINIA  
 
CITY SKY/WX TMP DP RH WIND PRES REMARKS
 
MARTINSBURG CLOUDY 31 30 96 S6 30.22F  
PETERSBURG MIX PCPN 35 32 89 SE5 30.12F  

 
 
SOUTHEAST OHIO/NORTHEAST KENTUCKY  
 
CITY SKY/WX TMP DP RH WIND PRES REMARKS
 
ATHENS LGT RAIN 48 48 100 CALM 29.80F  
ASHLAND LGT RAIN 46 46 100 CALM 29.82S FOG  

 
 
 
CLICK HERE TO GO TO PREVIOUS BULLETINS.

The Nexlab WV Page
The Nexlab OH Page
The Nexlab KY Page
The Nexlab VA Page Main Text Page